Location: Althorst
(53.6379°N, 10.7715°E)
Time: 23:15:00
(UTC+00:00)

S3M - Pass Details

Date: 10 December 2019
Orbit: 948 x 1005 km, 83.0° (Epoch: 18 January)

Event Time Altitude Azimuth Distance (km) Brightness Sun altitude
Rises 17:23:21 0° 350° (N) 3,699 7.0 -20.3°
Reaches altitude 10° 17:25:58 10° 355° (N) 2,739 6.3 -20.6°
Maximum altitude 17:32:07 55° 73° (ENE) 1,155 4.0 -21.5°
Drops below altitude 10° 17:38:08 10° 151° (SSE) 2,685 6.1 -22.4°
Sets 17:40:40 0° 155° (SSE) 3,621 6.8 -22.8°
